EWG32G LKPR-LSGG

Flight info

Callsign EWG32G
Flight time 1h 10m
Altitude 38000
Route BALTU4B BALTU DCT DONAD DCT OKG L984 KULOK Z715 ANELA N869 TEDGO/N0439F370 N869 NATOR DCT LUTIX DCT BENOT BENOT2R
Aircraft A320/M-SDE3FGHIRWY/LB1

Departure

Time 2026-05-05 10:53
Airport Václav Havel Airport Prague (LKPR)

Arrival

Time 2026-05-05 12:04
Airport Geneva International Airport (LSGG)
Time Latitude Longitude Altitude Speed Heading
2026-05-05 10:15 50.10464 14.26537 1174 ft 0 kts 34°
2026-05-05 10:40 50.10461 14.26533 1174 ft 3 kts 34°
2026-05-05 10:40 50.10440 14.26509 1170 ft 4 kts 49°
2026-05-05 10:40 50.10431 14.26481 1170 ft 3 kts 120°
2026-05-05 10:41 50.10433 14.26476 1170 ft 0 kts 124°
2026-05-05 10:46 50.10430 14.26483 1169 ft 3 kts 124°
2026-05-05 10:46 50.10417 14.26512 1169 ft 4 kts 123°
2026-05-05 10:46 50.10394 14.26567 1173 ft 8 kts 123°
2026-05-05 10:47 50.10361 14.26627 1170 ft 6 kts 156°
2026-05-05 10:47 50.10330 14.26602 1170 ft 5 kts 214°
2026-05-05 10:47 50.10307 14.26579 1169 ft 3 kts 214°
2026-05-05 10:47 50.10279 14.26548 1173 ft 6 kts 216°
2026-05-05 10:48 50.10249 14.26523 1175 ft 4 kts 188°
2026-05-05 10:48 50.10226 14.26545 1175 ft 4 kts 135°
2026-05-05 10:48 50.10193 14.26612 1177 ft 12 kts 126°
2026-05-05 10:48 50.10127 14.26748 1182 ft 19 kts 127°
2026-05-05 10:49 50.10045 14.26917 1192 ft 21 kts 127°
2026-05-05 10:49 50.09949 14.27116 1199 ft 23 kts 127°
2026-05-05 10:49 50.09852 14.27313 1203 ft 23 kts 134°
2026-05-05 10:49 50.09738 14.27492 1205 ft 24 kts 134°
2026-05-05 10:50 50.09620 14.27673 1210 ft 23 kts 135°
2026-05-05 10:50 50.09502 14.27852 1214 ft 24 kts 135°
2026-05-05 10:50 50.09390 14.28023 1215 ft 15 kts 135°
2026-05-05 10:50 50.09317 14.28134 1215 ft 16 kts 136°
2026-05-05 10:51 50.09234 14.28261 1212 ft 14 kts 140°
2026-05-05 10:51 50.09152 14.28274 1211 ft 12 kts 203°
2026-05-05 10:51 50.09105 14.28209 1211 ft 9 kts 225°
2026-05-05 10:51 50.09068 14.28132 1208 ft 8 kts 267°
2026-05-05 10:52 50.09096 14.28061 1208 ft 7 kts 307°
2026-05-05 10:52 50.09103 14.28048 1209 ft 0 kts 307°
2026-05-05 10:52 50.09122 14.28008 1210 ft 16 kts 307°
2026-05-05 10:53 50.09332 14.27577 1212 ft 89 kts 307°
2026-05-05 10:53 50.09850 14.26504 1205 ft 153 kts 308°
2026-05-05 10:53 50.10617 14.24978 1779 ft 178 kts 310°
2026-05-05 10:53 50.11362 14.23434 2892 ft 176 kts 308°
2026-05-05 10:54 50.12077 14.21886 3654 ft 179 kts 309°
2026-05-05 10:54 50.12831 14.20301 4285 ft 185 kts 309°
2026-05-05 10:54 50.13629 14.18650 4820 ft 198 kts 308°
2026-05-05 10:54 50.14522 14.16813 5211 ft 220 kts 307°
2026-05-05 10:55 50.15492 14.14774 5603 ft 247 kts 306°
2026-05-05 10:55 50.16575 14.12512 6130 ft 271 kts 306°
2026-05-05 10:55 50.17350 14.10903 6635 ft 279 kts 305°
2026-05-05 10:55 50.18529 14.08457 7557 ft 284 kts 305°
2026-05-05 10:56 50.19721 14.05978 8567 ft 287 kts 303°
2026-05-05 10:56 50.20588 14.03143 9530 ft 287 kts 281°
2026-05-05 10:56 50.20685 14.00041 10360 ft 291 kts 262°
2026-05-05 10:56 50.20438 13.96748 10749 ft 314 kts 261°
2026-05-05 10:57 50.20148 13.93291 11409 ft 325 kts 261°
2026-05-05 10:57 50.19845 13.89781 12267 ft 329 kts 261°
2026-05-05 10:57 50.19537 13.86218 13172 ft 332 kts 261°
2026-05-05 10:57 50.19229 13.82627 13992 ft 335 kts 261°
2026-05-05 10:58 50.18924 13.79013 14745 ft 339 kts 261°
2026-05-05 10:58 50.18615 13.75342 15498 ft 342 kts 261°
2026-05-05 10:58 50.18306 13.71646 16250 ft 345 kts 261°
2026-05-05 10:58 50.17991 13.67914 17000 ft 349 kts 261°
2026-05-05 10:59 50.17670 13.64143 17741 ft 352 kts 261°
2026-05-05 10:59 50.17344 13.60291 18424 ft 356 kts 261°
2026-05-05 10:59 50.17019 13.56450 19038 ft 359 kts 261°
2026-05-05 10:59 50.16692 13.52607 19640 ft 363 kts 261°
2026-05-05 11:00 50.16355 13.48657 20255 ft 366 kts 261°
2026-05-05 11:00 50.16013 13.44708 20858 ft 370 kts 261°
2026-05-05 11:00 50.15661 13.40696 21444 ft 374 kts 260°
2026-05-05 11:00 50.15306 13.36669 22018 ft 377 kts 260°
2026-05-05 11:01 50.14949 13.32596 22582 ft 381 kts 261°
2026-05-05 11:01 50.14587 13.28482 23145 ft 385 kts 260°
2026-05-05 11:01 50.14219 13.24334 23651 ft 388 kts 260°
2026-05-05 11:01 50.13852 13.20159 24132 ft 390 kts 261°
2026-05-05 11:02 50.13476 13.15892 24630 ft 393 kts 261°
2026-05-05 11:02 50.13102 13.11666 25133 ft 394 kts 261°
2026-05-05 11:02 50.12726 13.07420 25621 ft 396 kts 261°
2026-05-05 11:02 50.12347 13.03169 26101 ft 398 kts 261°
2026-05-05 11:03 50.11960 12.98878 26578 ft 400 kts 260°
2026-05-05 11:03 50.11565 12.94577 27041 ft 402 kts 260°
2026-05-05 11:03 50.11165 12.90264 27514 ft 404 kts 260°
2026-05-05 11:03 50.10765 12.85917 27809 ft 405 kts 260°
2026-05-05 11:04 50.10369 12.81577 27863 ft 405 kts 260°
2026-05-05 11:04 50.09972 12.77247 27860 ft 404 kts 260°
2026-05-05 11:04 50.09568 12.72842 28017 ft 407 kts 260°
2026-05-05 11:04 50.09161 12.68475 28503 ft 408 kts 260°
2026-05-05 11:05 50.08748 12.64091 28942 ft 410 kts 260°
2026-05-05 11:05 50.08331 12.59678 29379 ft 412 kts 260°
2026-05-05 11:05 50.07914 12.55261 29803 ft 415 kts 260°
2026-05-05 11:05 50.07487 12.50802 30169 ft 416 kts 260°
2026-05-05 11:06 50.07059 12.46339 30509 ft 418 kts 260°
2026-05-05 11:06 50.06644 12.41860 30845 ft 420 kts 261°
2026-05-05 11:06 50.06105 12.37403 31192 ft 418 kts 250°
2026-05-05 11:06 50.05076 12.33176 31523 ft 419 kts 247°
2026-05-05 11:07 50.03995 12.28966 31941 ft 418 kts 247°
2026-05-05 11:07 50.02900 12.24731 32428 ft 416 kts 247°
2026-05-05 11:07 50.01829 12.20561 32930 ft 413 kts 247°
2026-05-05 11:07 50.00778 12.16417 33408 ft 411 kts 247°
2026-05-05 11:08 49.99743 12.12291 33853 ft 410 kts 247°
2026-05-05 11:08 49.98712 12.08155 34246 ft 409 kts 248°
2026-05-05 11:08 49.97687 12.04038 34627 ft 408 kts 248°
2026-05-05 11:08 49.96662 11.99935 34990 ft 407 kts 247°
2026-05-05 11:09 49.95634 11.95836 35340 ft 406 kts 247°
2026-05-05 11:09 49.94609 11.91764 35672 ft 406 kts 247°
2026-05-05 11:09 49.93581 11.87680 36034 ft 404 kts 247°
2026-05-05 11:09 49.92559 11.83624 36396 ft 403 kts 247°
2026-05-05 11:10 49.91537 11.79579 36722 ft 402 kts 247°
2026-05-05 11:10 49.90514 11.75548 37020 ft 402 kts 246°
2026-05-05 11:10 49.89488 11.71524 37312 ft 401 kts 246°
2026-05-05 11:10 49.88461 11.67494 37613 ft 401 kts 246°
2026-05-05 11:11 49.87438 11.63477 37808 ft 402 kts 246°
2026-05-05 11:11 49.85371 11.55374 37834 ft 401 kts 246°
2026-05-05 11:12 49.83315 11.47360 37842 ft 401 kts 246°
2026-05-05 11:12 49.81243 11.39312 37844 ft 402 kts 246°
2026-05-05 11:13 49.79170 11.31291 37842 ft 402 kts 246°
2026-05-05 11:13 49.76905 11.23400 37838 ft 400 kts 237°
2026-05-05 11:14 49.73375 11.16829 37831 ft 398 kts 225°
2026-05-05 11:14 49.69520 11.10673 37829 ft 398 kts 226°
2026-05-05 11:15 49.65638 11.04484 37824 ft 399 kts 225°
2026-05-05 11:15 49.61778 10.98332 37822 ft 399 kts 225°
2026-05-05 11:16 49.57911 10.92176 37826 ft 400 kts 225°
2026-05-05 11:16 49.54034 10.86038 37828 ft 400 kts 225°
2026-05-05 11:17 49.50147 10.79897 37826 ft 400 kts 225°
2026-05-05 11:17 49.46257 10.73751 37848 ft 401 kts 225°
2026-05-05 11:18 49.42355 10.67619 37838 ft 402 kts 225°
2026-05-05 11:18 49.38468 10.61449 37838 ft 402 kts 226°
2026-05-05 11:19 49.34626 10.55204 37843 ft 403 kts 226°
2026-05-05 11:19 49.30723 10.49058 37843 ft 403 kts 224°
2026-05-05 11:20 49.26735 10.43011 37830 ft 403 kts 224°
2026-05-05 11:20 49.22745 10.36982 37838 ft 403 kts 224°
2026-05-05 11:21 49.19432 10.31876 37840 ft 404 kts 224°
2026-05-05 11:21 49.15501 10.25755 37843 ft 404 kts 224°
2026-05-05 11:22 49.11846 10.19216 37868 ft 405 kts 230°
2026-05-05 11:22 49.08294 10.12474 37863 ft 405 kts 230°
2026-05-05 11:23 49.04750 10.05772 37845 ft 406 kts 230°
2026-05-05 11:23 49.01201 9.99078 37846 ft 406 kts 229°
2026-05-05 11:24 48.97639 9.92381 37851 ft 407 kts 229°
2026-05-05 11:24 48.94075 9.85689 37853 ft 407 kts 229°
2026-05-05 11:25 48.90507 9.79011 37847 ft 407 kts 229°
2026-05-05 11:25 48.86928 9.72320 37836 ft 408 kts 229°
2026-05-05 11:26 48.83323 9.65585 37852 ft 408 kts 229°
2026-05-05 11:26 48.79727 9.58905 37844 ft 409 kts 229°
2026-05-05 11:27 48.76131 9.52247 37841 ft 410 kts 229°
2026-05-05 11:27 48.72471 9.45495 37845 ft 411 kts 229°
2026-05-05 11:28 48.68844 9.38811 37838 ft 410 kts 229°
2026-05-05 11:28 48.65200 9.32096 37826 ft 411 kts 229°
2026-05-05 11:29 48.61572 9.25421 37829 ft 411 kts 230°
2026-05-05 11:29 48.58160 9.18482 37833 ft 412 kts 233°
2026-05-05 11:30 48.54912 9.11358 37861 ft 412 kts 233°
2026-05-05 11:30 48.51640 9.04246 37855 ft 412 kts 233°
2026-05-05 11:31 48.48309 8.97206 37866 ft 412 kts 232°
2026-05-05 11:31 48.44950 8.90186 37864 ft 413 kts 232°
2026-05-05 11:32 48.41576 8.83125 37864 ft 413 kts 232°
2026-05-05 11:32 48.38229 8.76113 37869 ft 413 kts 232°
2026-05-05 11:33 48.34869 8.69098 37869 ft 413 kts 232°
2026-05-05 11:33 48.31499 8.62097 37870 ft 413 kts 232°
2026-05-05 11:34 48.28133 8.55112 37878 ft 414 kts 232°
2026-05-05 11:34 48.24748 8.48110 37875 ft 414 kts 232°
2026-05-05 11:34 48.23049 8.44598 37728 ft 416 kts 232°
2026-05-05 11:35 48.21358 8.41105 37433 ft 415 kts 232°
2026-05-05 11:35 48.19660 8.37601 37132 ft 415 kts 232°
2026-05-05 11:35 48.17917 8.34185 36838 ft 412 kts 226°
2026-05-05 11:35 48.15865 8.31206 36554 ft 410 kts 217°
2026-05-05 11:36 48.13531 8.28758 36262 ft 408 kts 211°
2026-05-05 11:36 48.11105 8.26429 35965 ft 410 kts 211°
2026-05-05 11:36 48.08706 8.24121 35849 ft 409 kts 211°
2026-05-05 11:37 48.03907 8.19499 35881 ft 411 kts 211°
2026-05-05 11:37 47.99104 8.14879 35888 ft 411 kts 211°
2026-05-05 11:38 47.94302 8.10270 35883 ft 411 kts 211°
2026-05-05 11:38 47.89483 8.05663 35887 ft 411 kts 211°
2026-05-05 11:39 47.84653 8.01046 35890 ft 412 kts 211°
2026-05-05 11:39 47.79817 7.96434 35855 ft 412 kts 211°
2026-05-05 11:39 47.77392 7.94128 35574 ft 412 kts 211°
2026-05-05 11:40 47.74953 7.91807 35278 ft 412 kts 211°
2026-05-05 11:40 47.72538 7.89512 35024 ft 411 kts 211°
2026-05-05 11:40 47.70130 7.87231 34755 ft 411 kts 211°
2026-05-05 11:40 47.67719 7.84949 34490 ft 409 kts 211°
2026-05-05 11:41 47.65328 7.82687 34226 ft 407 kts 211°
2026-05-05 11:41 47.62908 7.80395 33962 ft 405 kts 210°
2026-05-05 11:41 47.60569 7.78186 33688 ft 403 kts 210°
2026-05-05 11:41 47.58173 7.75930 33380 ft 401 kts 210°
2026-05-05 11:42 47.55823 7.73723 33061 ft 399 kts 210°
2026-05-05 11:42 47.53485 7.71528 32768 ft 398 kts 210°
2026-05-05 11:42 47.51156 7.69339 32484 ft 396 kts 210°
2026-05-05 11:42 47.48835 7.67154 32200 ft 394 kts 210°
2026-05-05 11:43 47.46487 7.64953 31905 ft 393 kts 210°
2026-05-05 11:43 47.44187 7.62800 31563 ft 391 kts 210°
2026-05-05 11:43 47.42662 7.61374 31303 ft 389 kts 210°
2026-05-05 11:43 47.39617 7.58530 30799 ft 386 kts 210°
2026-05-05 11:44 47.38114 7.57126 30553 ft 385 kts 210°
2026-05-05 11:44 47.35853 7.55015 30179 ft 384 kts 209°
2026-05-05 11:44 47.33661 7.52715 29800 ft 384 kts 217°
2026-05-05 11:44 47.31636 7.50150 29367 ft 381 kts 218°
2026-05-05 11:45 47.29645 7.47605 28960 ft 379 kts 218°
2026-05-05 11:45 47.27654 7.45051 28689 ft 378 kts 218°
2026-05-05 11:45 47.25686 7.42527 28339 ft 371 kts 218°
2026-05-05 11:45 47.23758 7.40060 27884 ft 366 kts 218°
2026-05-05 11:46 47.21844 7.37621 27453 ft 360 kts 218°
2026-05-05 11:46 47.19958 7.35226 27013 ft 358 kts 218°
2026-05-05 11:46 47.18082 7.32847 26571 ft 354 kts 218°
2026-05-05 11:46 47.16224 7.30490 26171 ft 350 kts 218°
2026-05-05 11:47 47.14368 7.28137 25749 ft 346 kts 218°
2026-05-05 11:47 47.12533 7.25814 25331 ft 342 kts 218°
2026-05-05 11:47 47.10735 7.23542 24914 ft 339 kts 218°
2026-05-05 11:47 47.08954 7.21298 24478 ft 336 kts 218°
2026-05-05 11:48 47.05499 7.16755 23597 ft 334 kts 226°
2026-05-05 11:48 47.04033 7.14100 23076 ft 334 kts 229°
2026-05-05 11:48 47.02592 7.11445 22597 ft 332 kts 229°
2026-05-05 11:49 47.01151 7.08803 22135 ft 330 kts 229°
2026-05-05 11:49 46.99720 7.06184 21670 ft 329 kts 229°
2026-05-05 11:49 46.98297 7.03582 21198 ft 327 kts 229°
2026-05-05 11:49 46.96876 7.00989 20742 ft 326 kts 229°
2026-05-05 11:50 46.95439 6.98374 20273 ft 325 kts 229°
2026-05-05 11:50 46.94018 6.95798 19820 ft 324 kts 228°
2026-05-05 11:50 46.92620 6.93261 19363 ft 325 kts 229°
2026-05-05 11:50 46.91187 6.90655 18876 ft 324 kts 229°
2026-05-05 11:51 46.89781 6.88099 18438 ft 323 kts 229°
2026-05-05 11:51 46.88374 6.85542 17953 ft 323 kts 229°
2026-05-05 11:51 46.86967 6.82988 17482 ft 322 kts 229°
2026-05-05 11:51 46.85560 6.80436 17024 ft 321 kts 229°
2026-05-05 11:52 46.84158 6.77895 16579 ft 321 kts 229°
2026-05-05 11:52 46.82758 6.75363 16140 ft 321 kts 229°
2026-05-05 11:52 46.81347 6.72813 15693 ft 323 kts 230°
2026-05-05 11:52 46.79939 6.70266 15239 ft 323 kts 230°
2026-05-05 11:53 46.78529 6.67722 14798 ft 322 kts 230°
2026-05-05 11:53 46.77124 6.65193 14352 ft 320 kts 230°
2026-05-05 11:53 46.75729 6.62688 13984 ft 315 kts 230°
2026-05-05 11:53 46.74364 6.60233 13527 ft 313 kts 230°
2026-05-05 11:54 46.72799 6.57990 12991 ft 311 kts 217°
2026-05-05 11:54 46.70927 6.56461 12541 ft 309 kts 202°
2026-05-05 11:54 46.68900 6.55457 12093 ft 307 kts 200°
2026-05-05 11:54 46.66876 6.54478 11642 ft 304 kts 200°
2026-05-05 11:55 46.64872 6.53507 11203 ft 302 kts 200°
2026-05-05 11:55 46.62862 6.52530 10728 ft 301 kts 200°
2026-05-05 11:55 46.60876 6.51568 10281 ft 300 kts 199°
2026-05-05 11:55 46.58905 6.50615 9952 ft 294 kts 199°
2026-05-05 11:56 46.57033 6.49711 9832 ft 282 kts 200°
2026-05-05 11:56 46.55159 6.48804 9656 ft 271 kts 199°
2026-05-05 11:56 46.53376 6.47943 9162 ft 272 kts 199°
2026-05-05 11:56 46.51546 6.47062 8402 ft 280 kts 199°
2026-05-05 11:57 46.49721 6.46182 7954 ft 269 kts 199°
2026-05-05 11:57 46.47985 6.45346 7795 ft 249 kts 199°
2026-05-05 11:57 46.46438 6.44436 7669 ft 234 kts 213°
2026-05-05 11:57 46.45257 6.42817 7282 ft 233 kts 226°
2026-05-05 11:58 46.44154 6.41112 6941 ft 230 kts 225°
2026-05-05 11:58 46.43070 6.39465 6604 ft 220 kts 225°
2026-05-05 11:58 46.42043 6.37914 6292 ft 208 kts 225°
2026-05-05 11:58 46.41050 6.36416 5990 ft 205 kts 224°
2026-05-05 11:59 46.40065 6.34930 5690 ft 204 kts 224°
2026-05-05 11:59 46.39094 6.33462 5370 ft 197 kts 224°
2026-05-05 11:59 46.38167 6.32059 5103 ft 190 kts 224°
2026-05-05 11:59 46.37252 6.30684 4844 ft 192 kts 223°
2026-05-05 12:00 46.36291 6.29261 4547 ft 198 kts 223°
2026-05-05 12:00 46.35331 6.27847 4250 ft 194 kts 223°
2026-05-05 12:00 46.34402 6.26493 4044 ft 183 kts 223°
2026-05-05 12:00 46.33550 6.25243 4024 ft 168 kts 223°
2026-05-05 12:01 46.32737 6.24046 3755 ft 166 kts 223°
2026-05-05 12:01 46.31918 6.22840 3364 ft 167 kts 224°
2026-05-05 12:01 46.31100 6.21633 2971 ft 163 kts 223°
2026-05-05 12:01 46.30314 6.20474 2554 ft 161 kts 225°
2026-05-05 12:02 46.29572 6.19381 2512 ft 143 kts 225°
2026-05-05 12:02 46.28904 6.18396 2516 ft 137 kts 224°
2026-05-05 12:02 46.28222 6.17393 2512 ft 137 kts 225°
2026-05-05 12:02 46.27550 6.16403 2308 ft 138 kts 226°
2026-05-05 12:03 46.27104 6.15731 2096 ft 138 kts 226°
2026-05-05 12:03 46.26393 6.14701 1875 ft 135 kts 225°
2026-05-05 12:03 46.25712 6.13684 1669 ft 133 kts 226°
2026-05-05 12:03 46.25061 6.12738 1443 ft 134 kts 224°
2026-05-05 12:04 46.24380 6.11738 1370 ft 113 kts 225°
2026-05-05 12:04 46.23921 6.11065 1379 ft 61 kts 225°
2026-05-05 12:04 46.23712 6.10788 1375 ft 26 kts 207°
2026-05-05 12:04 46.23585 6.10721 1376 ft 18 kts 195°
2026-05-05 12:05 46.23515 6.10697 1380 ft 8 kts 193°
2026-05-05 12:05 46.23469 6.10677 1382 ft 5 kts 197°
2026-05-05 12:05 46.23455 6.10671 1382 ft 0 kts 195°
2026-05-05 12:07 46.23454 6.10671 1382 ft 0 kts 195°
2026-05-05 12:07 46.23438 6.10664 1384 ft 3 kts 197°
2026-05-05 12:08 46.23416 6.10652 1381 ft 3 kts 201°
2026-05-05 12:08 46.23396 6.10641 1384 ft 3 kts 202°
2026-05-05 12:08 46.23389 6.10635 1383 ft 0 kts 213°
2026-05-05 12:08 46.23354 6.10605 1381 ft 8 kts 206°
2026-05-05 12:09 46.23312 6.10536 1385 ft 10 kts 233°
2026-05-05 12:09 46.23268 6.10452 1387 ft 10 kts 233°
2026-05-05 12:09 46.23227 6.10384 1403 ft 9 kts 224°
2026-05-05 12:09 46.23181 6.10334 1387 ft 4 kts 175°
2026-05-05 12:10 46.23154 6.10367 1387 ft 5 kts 137°
2026-05-05 12:10 46.23126 6.10406 1385 ft 6 kts 135°
2026-05-05 12:10 46.23098 6.10446 1386 ft 6 kts 137°
2026-05-05 12:10 46.23074 6.10480 1388 ft 4 kts 124°
2026-05-05 12:11 46.23072 6.10501 1389 ft 1 kts 97°
2026-05-05 12:11 46.23070 6.10511 1389 ft 1 kts 100°
2026-05-05 12:11 46.23067 6.10520 1390 ft 2 kts 116°
2026-05-05 12:11 46.23049 6.10548 1401 ft 3 kts 134°
2026-05-05 12:12 46.23038 6.10564 1399 ft 2 kts 135°
2026-05-05 12:12 46.23034 6.10570 1398 ft 0 kts 136°
2026-05-05 12:12 46.23033 6.10571 1398 ft 0 kts 136°